Weather in Roma

Australia     26°34′23″S   148°47′12″E
temp.,
°C
wind,
m/s
gust,
m/s
humid.,
%
clouds,
%
prec.,
mm/h
press.,
hPa
HPBL,
m
6 march, sat
sat601:00+23s45332 0.0 100755
04:00+21se22431 0.0 100723
07:00+22sse23440 0.0 100886
10:00+27se11310 0.0 1009951
13:00+30w22230 0.0 10072219
16:00+32sw23200 0.0 10052734
19:00+28s12290 0.0 100724
22:00+26e44290 0.0 101051
7 march, sun
sun701:00+22ne1116720 0.0 1010394
04:00+21nne1015800 0.0 1011596
07:00+22nne10137621 0.0 1013738
10:00+25nne10126239 0.0 1013936
13:00+31n88395 0.0 10101908
16:00+28nw11105017 0.4 10081120
19:00+21ene8881100 10.2 1010235
22:00+24nne6126375 10.4 1013317
8 march, mon
mon801:00+22nne9167939 0.0 1013630
04:00+20nne9148320 0.3 1014551
07:00+20n913847 0.0 1015611
10:00+25nne9116545 0.0 1016846
13:00+30n89444 0.0 10141356
16:00+30nw46422 0.1 10111600
19:00+21ssw6886100 6.4 1014537
22:00+22se1281100 9.5 101691
9 march, tue
tue901:00+22nnw468267 0.0 1015161
04:00+21nw478460 0.9 1014421
07:00+21n588183 0.0 1015418
10:00+26nnw566363 0.0 1016643
13:00+30nnw234642 0.1 10141679
16:00+31se224038 0.2 10121801
19:00+24ene027450 1.9 1014128
22:00+24ne237247 2.1 101550
10 march, wed
wed1001:00+24ne237434 0.0 101539
04:00+23nne587720 0.0 1015223
07:00+23n587736 0.0 1016290
10:00+28n555419 0.0 1016637
13:00+32n22390 0.0 10141807
16:00+32ne113513 0.0 10112333
19:00+25nw8106651 1.3 1013189
22:00+25nne576943 1.5 1015202